| time (UTC) | temp F | wind direction | speed MPH | gust MPH | rain 1hr in | rain 24hr in | rain mn in | humidity % | barometer mb |
| 20260505113035 | 47 | 15 | 6.0 | 10.0 | 0.00 | 0.00 | 0.00 | 67 | 1002.0 |
| 20260505111531 | 46 | 11 | 4.0 | 8.0 | 0.00 | 0.00 | 0.00 | 67 | 1001.7 |
| 20260505101520 | 46 | 9 | 6.0 | 10.0 | 0.00 | 0.00 | 0.00 | 69 | 1000.0 |
| 20260505100018 | 46 | 338 | 8.0 | 13.0 | 0.00 | 0.00 | 0.00 | 68 | 999.7 |
| 20260505094518 | 46 | 5 | 7.0 | 12.0 | 0.00 | 0.00 | 0.00 | 69 | 999.6 |
| 20260505093014 | 47 | 11 | 8.0 | 14.0 | 0.00 | 0.00 | 0.00 | 69 | 999.4 |
| 20260505091514 | 47 | 311 | 9.0 | 14.0 | 0.00 | 0.00 | 0.00 | 71 | 999.3 |
| 20260505090009 | 46 | 5 | 7.0 | 16.0 | 0.00 | 0.00 | 0.00 | 75 | 999.1 |
| 20260505084520 | 46 | 5 | 8.0 | 16.0 | 0.00 | 0.00 | 0.00 | 79 | 998.9 |
| 20260505083003 | 47 | 343 | 6.0 | 15.0 | 0.00 | 0.00 | 0.00 | 82 | 998.3 |
| 20260505081600 | 47 | 355 | 8.0 | 11.0 | 0.00 | 0.00 | 0.00 | 82 | 997.9 |
| 20260505080112 | 48 | 5 | 6.0 | 14.0 | 0.00 | 0.00 | 0.00 | 81 | 997.7 |
| 20260505074553 | 50 | 17 | 8.0 | 11.0 | 0.00 | 0.00 | 0.00 | 79 | 997.5 |
| 20260505073048 | 54 | 12 | 9.0 | 14.0 | 0.00 | 0.00 | 0.00 | 75 | 997.1 |
| 20260505071545 | 61 | 277 | 2.0 | 8.0 | 0.00 | 0.00 | 0.00 | 71 | 997.0 |
| 20260505070046 | 61 | 231 | 4.0 | 9.0 | 0.00 | 0.00 | 0.00 | 72 | 996.7 |
| 20260505064548 | 60 | 223 | 5.0 | 9.0 | 0.00 | 0.00 | 0.00 | 74 | 996.7 |
| 20260505063041 | 59 | 237 | 8.0 | 15.0 | 0.00 | 0.00 | 0.00 | 77 | 996.8 |
| 20260505061540 | 59 | 245 | 3.0 | 4.0 | 0.00 | 0.00 | 0.00 | 78 | 996.8 |
| 20260505060040 | 59 | 215 | 2.0 | 4.0 | 0.00 | 0.00 | 0.00 | 78 | 996.9 |
| 20260505054539 | 60 | 216 | 0.0 | 4.0 | 0.00 | 0.00 | 0.00 | 77 | 997.0 |
| 20260505053104 | 61 | 215 | 2.0 | 5.0 | 0.00 | 0.00 | 0.00 | 73 | 997.2 |
| 20260505051537 | 60 | 203 | 1.0 | 6.0 | 0.00 | 0.00 | 0.00 | 75 | 997.1 |
| 20260505041523 | 61 | 230 | 4.0 | 12.0 | 0.00 | 0.00 | 0.00 | 72 | 996.4 |
| 20260505040020 | 62 | 171 | 3.0 | 12.0 | 0.00 | 0.00 | 0.00 | 72 | 996.2 |
| 20260505034524 | 62 | 162 | 5.0 | 10.0 | 0.00 | 0.00 | 0.00 | 71 | 996.3 |
| 20260505033018 | 62 | 252 | 5.0 | 15.0 | 0.00 | 0.00 | 0.00 | 71 | 996.5 |
| 20260505031518 | 62 | 202 | 4.0 | 16.0 | 0.00 | 0.00 | 0.00 | 70 | 996.4 |
| 20260505030018 | 62 | 209 | 5.0 | 16.0 | 0.00 | 0.00 | 0.00 | 68 | 996.4 |
| 20260505024517 | 63 | 240 | 6.0 | 14.0 | 0.00 | 0.00 | 0.00 | 66 | 996.5 |
| 20260505023016 | 63 | 185 | 5.0 | 11.0 | 0.00 | 0.00 | 0.00 | 62 | 996.5 |
| 20260505021515 | 63 | 164 | 4.0 | 10.0 | 0.00 | 0.00 | 0.00 | 60 | 996.5 |
| 20260505020015 | 64 | 155 | 1.0 | 5.0 | 0.00 | 0.00 | 0.00 | 58 | 996.7 |
| 20260505014514 | 64 | 155 | 2.0 | 7.0 | 0.00 | 0.00 | 0.00 | 58 | 996.5 |
| 20260505013014 | 63 | 200 | 1.0 | 5.0 | 0.00 | 0.00 | 0.00 | 59 | 996.3 |
| 20260505011530 | 65 | 212 | 3.0 | 6.0 | 0.00 | 0.00 | 0.00 | 56 | 996.1 |
| 20260505010017 | 65 | 213 | 3.0 | 6.0 | 0.00 | 0.00 | 0.00 | 54 | 996.0 |
| 20260505004512 | 66 | 210 | 2.0 | 7.0 | 0.00 | 0.00 | 0.00 | 51 | 996.2 |
| 20260505003012 | 67 | 217 | 3.0 | 8.0 | 0.00 | 0.00 | 0.00 | 49 | 996.1 |
| 20260505001511 | 68 | 222 | 4.0 | 9.0 | 0.00 | 0.00 | 0.00 | 46 | 996.3 |
| 20260505000013 | 69 | 237 | 5.0 | 12.0 | 0.00 | 0.00 | 0.00 | 44 | 996.1 |
| 20260504234512 | 69 | 234 | 5.0 | 8.0 | 0.00 | 0.00 | 0.00 | 43 | 996.2 |
| 20260504233009 | 70 | 228 | 7.0 | 12.0 | 0.00 | 0.00 | 0.00 | 41 | 996.1 |
| 20260504231509 | 71 | 225 | 8.0 | 19.0 | 0.00 | 0.00 | 0.00 | 39 | 996.3 |
| 20260504230007 | 72 | 210 | 7.0 | 12.0 | 0.00 | 0.00 | 0.00 | 38 | 996.3 |
| 20260504224511 | 72 | 228 | 9.0 | 19.0 | 0.00 | 0.00 | 0.00 | 37 | 996.7 |
| 20260504223003 | 72 | 244 | 11.0 | 17.0 | 0.00 | 0.00 | 0.00 | 36 | 996.8 |
| 20260504221501 | 72 | 232 | 10.0 | 18.0 | 0.00 | 0.00 | 0.00 | 35 | 997.1 |
| 20260504214607 | 74 | 221 | 13.0 | 20.0 | 0.00 | 0.00 | 0.00 | 32 | 997.2 |
| 20260504213057 | 74 | 227 | 10.0 | 18.0 | 0.00 | 0.00 | 0.00 | 32 | 997.2 |
| 20260504211557 | 74 | 234 | 9.0 | 22.0 | 0.00 | 0.00 | 0.00 | 33 | 997.2 |
| 20260504210059 | 74 | 221 | 10.0 | 17.0 | 0.00 | 0.00 | 0.00 | 32 | 997.4 |
| 20260504204601 | 74 | 228 | 11.0 | 20.0 | 0.00 | 0.00 | 0.00 | 32 | 997.3 |
| 20260504203058 | 74 | 219 | 10.0 | 20.0 | 0.00 | 0.00 | 0.00 | 33 | 997.3 |
| 20260504201553 | 74 | 211 | 8.0 | 20.0 | 0.00 | 0.00 | 0.00 | 34 | 997.5 |
| 20260504200057 | 75 | 219 | 10.0 | 20.0 | 0.00 | 0.00 | 0.00 | 33 | 997.6 |
| 20260504194558 | 74 | 210 | 12.0 | 23.0 | 0.00 | 0.00 | 0.00 | 31 | 997.7 |
| 20260504193048 | 75 | 229 | 11.0 | 20.0 | 0.00 | 0.00 | 0.00 | 33 | 997.9 |
| 20260504191605 | 74 | 205 | 13.0 | 24.0 | 0.00 | 0.00 | 0.00 | 32 | 997.9 |
| 20260504190049 | 74 | 221 | 15.0 | 23.0 | 0.00 | 0.00 | 0.00 | 31 | 998.0 |
| 20260504184543 | 74 | 221 | 10.0 | 24.0 | 0.00 | 0.00 | 0.00 | 35 | 998.1 |
| 20260504183041 | 74 | 239 | 12.0 | 21.0 | 0.00 | 0.00 | 0.00 | 34 | 998.2 |
| 20260504181539 | 73 | 235 | 12.0 | 23.0 | 0.00 | 0.00 | 0.00 | 35 | 998.4 |
| 20260504180036 | 73 | 227 | 14.0 | 22.0 | 0.00 | 0.00 | 0.00 | 37 | 998.7 |
| 20260504174534 | 73 | 217 | 10.0 | 20.0 | 0.00 | 0.00 | 0.00 | 38 | 998.9 |
| 20260504173031 | 73 | 226 | 11.0 | 17.0 | 0.00 | 0.00 | 0.00 | 39 | 999.2 |
| 20260504171542 | 72 | 217 | 11.0 | 20.0 | 0.00 | 0.00 | 0.00 | 39 | 999.4 |